GFSGBSN_prec_precacc_363.txt.gz
Total_Precipitation_Accumulation
1.34 1.36 1.26 1.08 0.81 0.54 0.43 0.37 0.30 0.22 0.20 0.15 0.13 0.11 0.09 0.09 0.09 0.07 0.05 0.03 0.04 0.04 0.04 0.05 0.06 0.08 0.05 0.02 0.00 0.00 0.00 0.00 0.00 0.00 0.00 0.00 0.00 0.00 0.00 0.00 0.00 0.00 0.00 0.00 0.01 0.01 0.01
1.12 1.10 1.36 1.61 1.74 1.67 1.47 1.23 0.96 0.77 0.66 0.52 0.39 0.29 0.23 0.16 0.12 0.10 0.09 0.06 0.05 0.05 0.05 0.07 0.10 0.14 0.09 0.03 0.00 0.00 0.00 0.00 0.00 0.00 0.00 0.00 0.00 0.00 0.00 0.00 0.00 0.00 0.00 0.00 0.02 0.00 0.00
1.46 1.38 1.17 1.08 1.22 1.43 1.60 1.61 1.54 1.36 1.20 1.09 1.00 0.89 0.71 0.56 0.37 0.23 0.16 0.10 0.08 0.12 0.14 0.16 0.20 0.16 0.10 0.01 0.00 0.00 0.00 0.00 0.00 0.00 0.00 0.00 0.00 0.00 0.00 0.00 0.00 0.00 0.00 0.00 0.00 0.01 0.01
1.56 1.56 1.62 1.57 1.30 1.18 1.21 1.37 1.36 1.37 1.40 1.29 1.26 1.13 0.95 0.75 0.63 0.48 0.30 0.20 0.17 0.13 0.17 0.30 0.39 0.26 0.13 0.00 0.00 0.00 0.00 0.00 0.00 0.00 0.00 0.00 0.00 0.00 0.00 0.00 0.00 0.00 0.00 0.00 0.00 0.01 0.02
1.30 1.33 1.46 1.56 1.57 1.51 1.48 1.47 1.52 1.46 1.32 1.31 1.34 1.38 1.21 1.02 0.76 0.53 0.43 0.33 0.24 0.26 0.33 0.35 0.45 0.36 0.09 0.00 0.00 0.00 0.00 0.02 0.00 0.00 0.00 0.00 0.00 0.00 0.00 0.00 0.01 0.00 0.00 0.00 0.00 0.00 0.01
1.46 1.30 1.22 1.17 1.20 1.22 1.24 1.31 1.41 1.47 1.49 1.36 1.38 1.41 1.44 1.35 1.21 1.01 0.79 0.60 0.48 0.52 0.60 0.68 0.58 0.29 0.04 0.00 0.00 0.00 0.00 0.02 0.01 0.00 0.00 0.00 0.00 0.01 0.00 0.01 0.01 0.00 0.00 0.00 0.02 0.07 0.00
2.08 1.92 1.69 1.54 1.38 1.17 1.08 1.12 1.16 1.19 1.28 1.30 1.21 1.23 1.26 1.31 1.37 1.45 1.28 1.22 1.09 0.94 0.72 0.36 0.21 0.08 0.00 0.00 0.00 0.00 0.00 0.00 0.00 0.00 0.02 0.00 0.02 0.01 0.00 0.00 0.00 0.01 0.01 0.00 0.00 0.00 0.00
2.10 2.00 1.94 1.89 1.78 1.70 1.56 1.42 1.19 1.09 1.04 1.19 1.41 1.41 1.21 1.19 1.36 1.58 1.46 1.31 0.92 0.70 0.59 0.09 0.02 0.01 0.01 0.00 0.00 0.00 0.01 0.04 0.03 0.03 0.03 0.04 0.03 0.00 0.00 0.00 0.00 0.02 0.03 0.01 0.01 0.01 0.02
1.94 1.99 1.88 1.81 1.79 1.71 1.64 1.60 1.48 1.15 0.92 0.98 1.21 1.57 1.73 1.61 1.75 1.94 1.81 1.30 0.65 0.61 0.97 0.27 0.07 0.03 0.02 0.01 0.03 0.03 0.00 0.02 0.07 0.06 0.06 0.05 0.02 0.00 0.02 0.01 0.01 0.01 0.05 0.03 0.03 0.02 0.00
1.86 1.79 1.77 1.82 1.90 1.88 1.80 1.71 1.42 1.16 1.11 1.18 1.26 1.61 1.96 2.50 3.20 2.16 1.95 0.99 0.84 1.37 1.58 0.60 0.10 0.05 0.03 0.03 0.06 0.00 0.00 0.01 0.08 0.08 0.15 0.20 0.03 0.03 0.03 0.01 0.07 0.06 0.00 0.02 0.02 0.12 0.08
1.88 1.88 1.82 1.75 1.74 1.72 1.70 1.74 1.73 1.54 1.32 1.27 1.37 1.72 2.13 2.58 2.22 2.15 1.42 0.70 1.53 2.32 3.65 0.80 0.06 0.01 0.05 0.03 0.02 0.02 0.00 0.02 0.06 0.15 0.47 0.26 0.03 0.06 0.07 0.04 0.07 0.05 0.00 0.02 0.04 0.12 0.27
1.85 1.83 1.93 1.95 1.76 1.59 1.58 1.64 1.61 1.58 1.59 1.55 1.50 1.69 2.36 2.57 2.31 1.26 0.71 1.40 3.20 5.51 4.81 0.67 0.03 0.01 0.02 0.01 0.01 0.01 0.05 0.04 0.04 0.21 0.26 0.07 0.02 0.13 0.20 0.01 0.03 0.05 0.08 0.11 0.15 0.33 0.82
2.39 1.94 1.83 1.87 1.90 1.95 1.73 1.57 1.48 1.62 1.72 1.75 1.85 1.95 2.28 1.93 2.31 1.48 1.74 3.41 6.17 6.50 2.50 0.40 0.04 0.02 0.01 0.01 0.00 0.03 0.12 0.13 0.31 0.57 0.39 0.14 0.12 0.07 0.15 0.20 0.10 0.17 0.43 1.00 1.01 0.94 0.69
2.35 2.31 2.17 1.97 1.84 1.84 1.85 1.78 1.61 1.56 1.68 1.94 2.24 2.54 2.50 2.10 1.71 2.18 3.82 5.97 7.19 3.64 1.18 0.18 0.05 0.07 0.10 0.07 0.04 0.03 0.18 0.36 0.48 0.27 0.45 0.61 0.60 0.22 0.32 0.45 0.31 0.20 0.58 1.08 0.99 0.44 0.21
2.37 2.30 2.19 1.99 1.73 1.64 1.72 1.87 1.89 1.96 2.04 2.23 2.94 3.31 3.44 2.92 2.73 3.50 5.91 9.10 5.72 1.84 0.35 0.08 0.10 0.24 0.32 0.28 0.18 0.19 0.49 0.83 0.76 0.45 1.04 1.09 0.80 0.37 0.37 0.32 0.46 0.83 0.93 0.39 1.39 1.07 1.24
2.92 2.47 2.30 2.15 1.93 1.76 1.73 1.68 2.01 2.21 2.38 2.65 2.82 3.36 3.29 2.86 3.57 5.21 7.72 7.07 3.26 0.81 0.14 0.11 0.38 0.31 0.37 0.33 0.44 0.52 0.85 1.32 0.70 0.55 1.14 1.61 1.79 0.42 0.42 0.73 0.65 0.83 0.84 1.80 3.23 3.15 2.02
3.58 2.88 2.50 2.40 2.28 1.79 1.70 1.67 1.87 2.20 2.31 3.01 3.54 4.47 3.17 2.74 5.24 8.20 8.83 5.01 2.17 0.64 0.34 0.46 0.39 0.55 0.38 0.36 0.60 0.85 1.24 1.41 1.05 0.43 0.78 1.48 2.09 1.15 0.75 1.32 1.45 1.22 1.76 2.92 3.42 2.63 2.49
3.45 3.58 3.10 2.71 2.79 2.38 1.85 1.95 2.13 2.37 2.95 4.14 4.78 4.89 3.21 3.50 6.51 7.46 5.66 2.90 1.40 0.58 0.59 0.89 0.70 0.46 0.58 0.50 0.57 1.01 1.40 1.41 0.97 0.74 0.82 1.33 2.04 1.65 0.99 0.60 0.62 1.18 2.01 3.11 5.14 4.53 3.81
3.36 3.41 3.68 3.35 3.27 3.46 2.75 2.39 2.60 2.88 3.39 4.33 5.85 4.25 4.20 4.81 5.88 4.41 2.92 2.19 1.41 0.70 0.63 1.31 1.12 0.77 0.72 0.66 1.24 0.80 0.93 0.99 1.03 1.01 1.17 1.30 2.02 2.04 1.44 1.36 1.11 1.87 2.01 2.37 3.18 3.94 4.00
2.96 3.19 3.04 3.58 3.44 4.01 3.76 3.18 2.90 3.11 4.16 5.09 6.76 6.01 6.32 6.42 4.12 2.61 2.04 1.68 1.35 0.72 0.51 0.77 1.10 0.69 0.97 1.22 1.19 1.20 0.70 0.80 0.99 0.89 0.82 1.76 1.49 1.97 2.07 2.60 1.96 1.67 1.32 1.70 2.70 3.29 2.51
2.26 2.67 3.14 3.15 3.74 4.11 4.44 4.22 3.99 4.12 4.91 8.02 8.88 4.82 3.12 4.01 2.89 2.07 1.87 1.89 1.09 1.03 1.03 0.79 1.15 0.88 1.00 1.53 1.35 1.03 0.80 1.08 1.24 1.03 1.00 2.09 2.13 1.73 1.70 1.23 0.75 1.09 1.11 0.94 1.62 1.50 2.09
2.00 2.04 2.62 3.31 3.79 3.69 4.22 4.63 4.59 4.86 6.54 10.49 8.91 3.28 1.78 1.13 1.04 1.73 1.69 1.69 0.95 0.85 1.49 1.35 1.33 0.89 0.96 1.34 1.29 1.19 1.27 1.21 1.48 1.00 1.35 2.25 2.83 2.22 2.40 1.15 0.97 1.13 1.10 0.73 1.00 1.18 1.51
1.84 1.80 2.20 2.82 3.19 3.30 3.89 4.53 4.66 4.88 7.81 12.76 7.15 2.10 2.49 1.75 0.95 1.43 1.69 1.38 1.07 1.30 1.19 0.77 1.03 1.17 1.19 1.20 0.94 0.62 0.79 1.07 1.16 1.14 1.43 2.32 3.39 3.23 3.34 1.42 1.20 2.08 2.08 1.49 1.25 1.22 1.44
2.03 1.92 1.95 2.39 2.56 3.11 3.72 4.07 4.66 5.34 6.49 7.23 4.52 2.48 3.33 2.84 1.32 1.15 0.67 0.66 0.81 0.92 1.97 0.97 0.91 1.32 1.06 0.75 0.88 1.06 1.14 1.17 1.25 1.43 1.67 2.29 2.37 3.24 3.25 2.19 3.15 2.96 1.47 1.40 1.83 1.42 1.26
2.30 2.17 2.22 2.43 2.67 2.90 3.46 3.67 4.32 5.27 5.87 5.62 4.21 3.14 3.88 3.04 1.23 0.96 0.66 0.68 0.64 0.90 1.19 1.40 1.16 1.04 0.77 0.87 1.89 2.57 2.51 2.32 1.65 1.48 1.80 1.93 2.04 3.18 3.46 2.57 2.34 0.96 1.10 1.46 1.92 1.72 1.41
2.40 2.29 2.31 2.41 2.64 2.85 3.26 3.50 3.48 4.43 5.69 5.93 5.01 3.78 4.52 4.57 1.58 0.71 0.73 0.54 0.82 1.26 1.40 1.13 1.23 1.29 1.41 1.90 2.92 3.16 2.31 2.00 1.65 1.26 0.92 1.35 2.07 3.27 3.29 2.81 2.27 1.65 0.87 0.56 1.08 1.79 1.43
2.20 2.19 2.00 2.14 2.39 2.53 2.90 3.23 3.13 3.70 4.92 6.33 5.96 3.70 5.65 5.58 1.36 0.79 1.23 1.11 0.82 1.09 1.43 1.16 1.27 1.55 1.60 2.95 3.80 2.88 1.94 1.09 1.55 1.73 1.58 1.88 2.99 3.38 2.68 2.57 1.68 1.40 0.65 0.32 1.76 2.22 1.72
2.16 2.25 1.96 2.01 2.12 2.18 2.52 2.82 3.00 3.19 4.33 5.73 6.33 3.28 5.36 6.05 2.10 0.94 0.97 0.89 0.71 0.95 1.72 1.65 2.19 2.17 2.65 2.80 2.76 2.60 2.38 1.97 1.84 1.67 1.89 2.07 2.78 2.82 2.61 2.92 2.08 1.34 1.17 1.92 2.53 1.92 1.64
2.15 2.35 2.05 2.02 1.98 2.06 2.18 2.47 2.92 3.28 4.11 5.32 5.94 3.58 4.35 6.83 3.78 1.05 1.04 0.71 0.49 0.66 1.29 1.62 2.07 2.02 2.54 3.12 2.44 2.15 2.03 1.96 1.64 2.16 1.09 2.29 2.14 2.43 2.77 3.12 2.37 1.78 2.17 2.27 1.92 1.68 1.37

GFSGBSN_prec_precacc_369.txt.gz
Total_Precipitation_Accumulation
1.34 1.36 1.26 1.08 0.81 0.54 0.43 0.37 0.30 0.22 0.20 0.15 0.13 0.11 0.09 0.09 0.09 0.07 0.05 0.03 0.04 0.04 0.04 0.05 0.06 0.08 0.05 0.02 0.00 0.00 0.00 0.00 0.00 0.00 0.00 0.00 0.00 0.00 0.00 0.00 0.00 0.00 0.00 0.00 0.01 0.01 0.01
1.12 1.10 1.36 1.61 1.74 1.67 1.47 1.23 0.96 0.77 0.66 0.52 0.39 0.29 0.23 0.16 0.12 0.10 0.09 0.06 0.05 0.05 0.05 0.07 0.10 0.14 0.09 0.03 0.00 0.00 0.00 0.00 0.00 0.00 0.00 0.00 0.00 0.00 0.00 0.00 0.00 0.00 0.00 0.00 0.02 0.00 0.00
1.46 1.38 1.17 1.08 1.22 1.43 1.60 1.61 1.54 1.36 1.20 1.09 1.00 0.89 0.71 0.56 0.37 0.23 0.16 0.10 0.08 0.12 0.14 0.16 0.20 0.16 0.10 0.01 0.00 0.00 0.00 0.00 0.00 0.00 0.00 0.00 0.00 0.00 0.00 0.00 0.00 0.00 0.00 0.00 0.00 0.01 0.01
1.56 1.56 1.62 1.57 1.30 1.18 1.21 1.37 1.36 1.37 1.40 1.29 1.26 1.13 0.95 0.75 0.63 0.48 0.30 0.20 0.17 0.13 0.17 0.30 0.39 0.26 0.13 0.00 0.00 0.00 0.00 0.00 0.00 0.00 0.00 0.00 0.00 0.00 0.00 0.00 0.00 0.00 0.00 0.00 0.00 0.01 0.02
1.30 1.33 1.46 1.56 1.57 1.51 1.48 1.47 1.52 1.46 1.32 1.31 1.34 1.38 1.21 1.02 0.76 0.53 0.43 0.33 0.24 0.26 0.33 0.35 0.45 0.36 0.09 0.00 0.00 0.00 0.00 0.02 0.00 0.00 0.00 0.00 0.00 0.00 0.00 0.00 0.01 0.00 0.00 0.00 0.00 0.00 0.01
1.46 1.30 1.22 1.17 1.20 1.22 1.24 1.31 1.41 1.47 1.49 1.36 1.38 1.41 1.44 1.35 1.21 1.01 0.79 0.60 0.48 0.52 0.60 0.68 0.58 0.29 0.04 0.00 0.00 0.00 0.00 0.02 0.01 0.00 0.00 0.00 0.00 0.01 0.00 0.01 0.01 0.00 0.00 0.00 0.02 0.07 0.00
2.08 1.92 1.69 1.54 1.38 1.17 1.08 1.12 1.16 1.19 1.28 1.30 1.21 1.23 1.26 1.31 1.37 1.45 1.28 1.22 1.09 0.94 0.72 0.36 0.21 0.08 0.00 0.00 0.00 0.00 0.00 0.00 0.00 0.00 0.02 0.00 0.02 0.01 0.00 0.00 0.00 0.01 0.01 0.00 0.00 0.00 0.00
2.10 2.00 1.94 1.89 1.78 1.70 1.56 1.42 1.19 1.09 1.04 1.19 1.41 1.41 1.21 1.19 1.36 1.58 1.46 1.31 0.92 0.70 0.59 0.09 0.02 0.01 0.01 0.00 0.00 0.00 0.01 0.04 0.03 0.03 0.03 0.04 0.03 0.00 0.00 0.00 0.00 0.02 0.03 0.01 0.01 0.01 0.02
1.94 1.99 1.88 1.81 1.79 1.71 1.64 1.60 1.48 1.15 0.92 0.98 1.21 1.57 1.73 1.61 1.75 1.94 1.81 1.30 0.65 0.61 0.97 0.27 0.07 0.03 0.02 0.01 0.03 0.03 0.00 0.02 0.07 0.06 0.06 0.05 0.02 0.00 0.02 0.01 0.01 0.01 0.05 0.03 0.03 0.02 0.00
1.86 1.79 1.77 1.82 1.90 1.88 1.80 1.71 1.42 1.16 1.11 1.18 1.26 1.61 1.96 2.50 3.20 2.16 1.95 0.99 0.84 1.37 1.58 0.60 0.10 0.05 0.03 0.03 0.06 0.00 0.00 0.01 0.08 0.08 0.15 0.20 0.03 0.03 0.03 0.01 0.07 0.06 0.00 0.02 0.02 0.12 0.08
1.88 1.88 1.82 1.75 1.74 1.72 1.70 1.74 1.73 1.54 1.32 1.27 1.37 1.72 2.13 2.58 2.22 2.15 1.42 0.70 1.53 2.32 3.65 0.80 0.06 0.01 0.05 0.03 0.02 0.02 0.00 0.02 0.06 0.15 0.47 0.26 0.03 0.06 0.07 0.04 0.07 0.05 0.00 0.02 0.04 0.12 0.27
1.85 1.83 1.93 1.95 1.76 1.59 1.58 1.64 1.61 1.58 1.59 1.55 1.50 1.69 2.36 2.57 2.31 1.26 0.71 1.40 3.20 5.51 4.81 0.67 0.03 0.01 0.02 0.01 0.01 0.01 0.05 0.04 0.04 0.21 0.26 0.07 0.02 0.13 0.20 0.01 0.03 0.05 0.08 0.11 0.15 0.33 0.82
2.39 1.94 1.83 1.87 1.90 1.95 1.73 1.57 1.48 1.62 1.72 1.75 1.85 1.95 2.28 1.93 2.31 1.48 1.74 3.41 6.17 6.50 2.50 0.40 0.04 0.02 0.01 0.01 0.00 0.03 0.12 0.13 0.31 0.57 0.39 0.14 0.12 0.07 0.15 0.20 0.10 0.17 0.43 1.00 1.01 0.94 0.69
2.35 2.31 2.17 1.97 1.84 1.84 1.85 1.78 1.61 1.56 1.68 1.94 2.24 2.54 2.50 2.10 1.71 2.18 3.82 5.97 7.19 3.64 1.18 0.18 0.05 0.07 0.10 0.07 0.04 0.03 0.18 0.36 0.48 0.27 0.45 0.61 0.60 0.22 0.32 0.45 0.31 0.20 0.58 1.08 0.99 0.44 0.21
2.37 2.30 2.19 1.99 1.73 1.64 1.72 1.87 1.89 1.96 2.04 2.23 2.94 3.31 3.44 2.92 2.73 3.50 5.91 9.10 5.72 1.84 0.35 0.08 0.10 0.24 0.32 0.28 0.18 0.19 0.49 0.83 0.76 0.45 1.04 1.09 0.80 0.37 0.37 0.32 0.46 0.84 0.93 0.39 1.40 1.08 1.25
2.92 2.47 2.30 2.15 1.93 1.76 1.73 1.68 2.01 2.21 2.38 2.65 2.82 3.36 3.29 2.86 3.57 5.21 7.72 7.07 3.26 0.81 0.14 0.11 0.38 0.31 0.37 0.33 0.44 0.52 0.85 1.32 0.70 0.55 1.14 1.61 1.82 0.43 0.42 0.73 0.65 0.83 0.85 1.83 3.24 3.15 2.04
3.58 2.88 2.50 2.40 2.28 1.79 1.70 1.67 1.87 2.20 2.31 3.01 3.54 4.47 3.17 2.74 5.24 8.20 8.83 5.01 2.17 0.64 0.34 0.46 0.39 0.55 0.38 0.36 0.60 0.85 1.24 1.41 1.05 0.43 0.78 1.48 2.11 1.17 0.75 1.32 1.45 1.22 1.76 2.93 3.45 2.68 2.60
3.45 3.58 3.10 2.71 2.79 2.38 1.85 1.95 2.13 2.37 2.95 4.14 4.78 4.89 3.21 3.50 6.51 7.46 5.66 2.90 1.40 0.58 0.59 0.89 0.70 0.46 0.58 0.50 0.57 1.01 1.40 1.42 0.97 0.74 0.82 1.33 2.04 1.66 1.00 0.60 0.62 1.18 2.02 3.13 5.20 4.60 3.95
3.36 3.41 3.68 3.35 3.27 3.46 2.75 2.39 2.60 2.88 3.39 4.33 5.85 4.25 4.20 4.81 5.88 4.41 2.92 2.19 1.41 0.70 0.63 1.31 1.12 0.77 0.72 0.66 1.24 0.80 0.93 0.99 1.03 1.01 1.17 1.30 2.02 2.05 1.45 1.36 1.11 1.87 2.01 2.37 3.20 3.95 4.03
2.96 3.19 3.04 3.58 3.44 4.01 3.76 3.18 2.90 3.11 4.16 5.09 6.76 6.01 6.32 6.42 4.12 2.61 2.04 1.68 1.35 0.72 0.51 0.77 1.10 0.69 0.98 1.23 1.19 1.20 0.70 0.80 0.99 0.89 0.82 1.76 1.49 1.97 2.07 2.60 1.96 1.67 1.32 1.70 2.70 3.30 2.52
2.26 2.67 3.14 3.15 3.74 4.11 4.44 4.22 3.99 4.12 4.91 8.02 8.88 4.82 3.12 4.01 2.89 2.07 1.87 1.89 1.09 1.03 1.03 0.79 1.15 0.88 1.00 1.54 1.35 1.03 0.80 1.08 1.24 1.03 1.00 2.09 2.13 1.73 1.70 1.23 0.75 1.09 1.11 0.94 1.62 1.50 2.10
2.00 2.04 2.62 3.31 3.79 3.69 4.22 4.63 4.59 4.86 6.54 10.49 8.91 3.28 1.78 1.13 1.04 1.73 1.69 1.69 0.95 0.85 1.49 1.35 1.33 0.89 0.96 1.34 1.29 1.19 1.27 1.21 1.48 1.01 1.35 2.25 2.83 2.22 2.41 1.16 0.98 1.13 1.11 0.74 1.01 1.19 1.51
1.84 1.80 2.20 2.82 3.19 3.30 3.89 4.53 4.66 4.88 7.81 12.76 7.15 2.10 2.49 1.75 0.95 1.43 1.69 1.38 1.07 1.30 1.19 0.77 1.03 1.17 1.19 1.20 0.94 0.62 0.79 1.07 1.16 1.15 1.46 2.34 3.40 3.27 3.36 1.47 1.21 2.08 2.09 1.55 1.28 1.24 1.45
2.03 1.92 1.95 2.39 2.56 3.11 3.72 4.07 4.66 5.34 6.49 7.23 4.52 2.48 3.33 2.84 1.32 1.15 0.67 0.66 0.81 0.92 1.97 0.97 0.91 1.32 1.06 0.75 0.88 1.06 1.14 1.17 1.25 1.43 1.67 2.30 2.38 3.33 3.27 2.21 3.15 2.96 1.47 1.40 1.85 1.43 1.27
2.30 2.17 2.22 2.43 2.67 2.90 3.46 3.67 4.32 5.27 5.87 5.62 4.21 3.14 3.88 3.04 1.23 0.96 0.66 0.68 0.64 0.90 1.19 1.40 1.16 1.04 0.77 0.87 1.90 2.63 2.52 2.33 1.65 1.48 1.80 1.93 2.04 3.19 3.46 2.57 2.34 0.96 1.10 1.46 1.93 1.72 1.41
2.40 2.29 2.31 2.41 2.64 2.85 3.26 3.50 3.48 4.43 5.69 5.93 5.01 3.78 4.52 4.57 1.58 0.71 0.73 0.54 0.82 1.26 1.40 1.13 1.23 1.29 1.41 1.90 2.92 3.17 2.31 2.01 1.65 1.26 0.92 1.35 2.07 3.27 3.29 2.81 2.27 1.65 0.87 0.56 1.08 1.80 1.43
2.20 2.19 2.00 2.14 2.39 2.53 2.90 3.23 3.13 3.70 4.92 6.33 5.96 3.70 5.65 5.58 1.36 0.79 1.23 1.11 0.82 1.09 1.43 1.16 1.27 1.55 1.60 2.95 3.80 2.88 1.94 1.09 1.55 1.73 1.58 1.88 2.99 3.38 2.68 2.57 1.68 1.40 0.65 0.32 1.76 2.22 1.72
2.16 2.25 1.96 2.01 2.12 2.18 2.52 2.82 3.00 3.19 4.33 5.73 6.33 3.28 5.36 6.05 2.10 0.94 0.97 0.89 0.71 0.95 1.72 1.65 2.19 2.17 2.65 2.80 2.76 2.60 2.38 1.97 1.84 1.67 1.89 2.07 2.78 2.82 2.61 2.92 2.08 1.34 1.17 1.92 2.53 1.92 1.64
2.15 2.35 2.05 2.02 1.98 2.06 2.18 2.47 2.92 3.28 4.11 5.32 5.94 3.58 4.35 6.83 3.78 1.05 1.04 0.71 0.49 0.66 1.29 1.62 2.07 2.02 2.54 3.12 2.44 2.15 2.03 1.96 1.64 2.16 1.09 2.29 2.14 2.43 2.77 3.12 2.37 1.78 2.17 2.27 1.92 1.68 1.37

GFSGBSN_prec_precacc_375.txt.gz
Total_Precipitation_Accumulation
1.34 1.36 1.26 1.08 0.81 0.54 0.43 0.37 0.30 0.22 0.20 0.15 0.13 0.11 0.09 0.09 0.09 0.07 0.05 0.03 0.04 0.04 0.04 0.05 0.06 0.08 0.05 0.02 0.00 0.00 0.00 0.00 0.00 0.00 0.00 0.00 0.00 0.00 0.00 0.00 0.00 0.00 0.00 0.00 0.01 0.01 0.01
1.13 1.10 1.36 1.61 1.74 1.67 1.47 1.23 0.96 0.77 0.66 0.52 0.39 0.29 0.23 0.16 0.12 0.10 0.09 0.06 0.05 0.05 0.05 0.07 0.10 0.14 0.09 0.03 0.00 0.00 0.00 0.00 0.00 0.00 0.00 0.00 0.00 0.00 0.00 0.00 0.00 0.00 0.00 0.00 0.02 0.00 0.00
1.46 1.38 1.17 1.08 1.22 1.43 1.60 1.61 1.54 1.36 1.20 1.09 1.00 0.89 0.71 0.56 0.37 0.23 0.16 0.10 0.08 0.12 0.14 0.16 0.20 0.16 0.10 0.01 0.00 0.00 0.00 0.00 0.00 0.00 0.00 0.00 0.00 0.00 0.00 0.00 0.00 0.00 0.00 0.00 0.00 0.01 0.01
1.56 1.56 1.62 1.57 1.30 1.18 1.21 1.37 1.36 1.37 1.40 1.29 1.26 1.13 0.95 0.75 0.63 0.48 0.30 0.20 0.17 0.13 0.17 0.30 0.39 0.26 0.13 0.00 0.00 0.00 0.00 0.00 0.00 0.00 0.00 0.00 0.00 0.00 0.00 0.00 0.00 0.00 0.00 0.00 0.00 0.01 0.02
1.30 1.33 1.46 1.56 1.57 1.51 1.48 1.47 1.52 1.46 1.32 1.31 1.34 1.38 1.21 1.02 0.76 0.53 0.43 0.33 0.24 0.26 0.33 0.35 0.45 0.36 0.09 0.00 0.00 0.00 0.00 0.02 0.00 0.00 0.00 0.00 0.00 0.00 0.00 0.00 0.01 0.00 0.00 0.00 0.00 0.00 0.01
1.46 1.30 1.22 1.17 1.20 1.22 1.24 1.31 1.41 1.47 1.49 1.36 1.38 1.41 1.44 1.35 1.21 1.01 0.79 0.60 0.48 0.52 0.60 0.68 0.58 0.29 0.04 0.00 0.00 0.00 0.00 0.02 0.01 0.00 0.00 0.00 0.00 0.01 0.00 0.01 0.01 0.00 0.00 0.00 0.02 0.07 0.00
2.08 1.92 1.69 1.54 1.38 1.17 1.08 1.12 1.16 1.19 1.28 1.30 1.21 1.23 1.26 1.31 1.37 1.45 1.28 1.22 1.09 0.94 0.72 0.36 0.21 0.08 0.00 0.00 0.00 0.00 0.00 0.00 0.00 0.00 0.02 0.00 0.02 0.01 0.00 0.00 0.00 0.01 0.01 0.00 0.00 0.00 0.00
2.10 2.00 1.94 1.89 1.78 1.70 1.56 1.42 1.19 1.09 1.04 1.19 1.41 1.41 1.21 1.19 1.36 1.58 1.46 1.31 0.92 0.70 0.59 0.09 0.02 0.01 0.01 0.00 0.00 0.00 0.01 0.04 0.03 0.03 0.03 0.04 0.03 0.00 0.00 0.00 0.00 0.02 0.03 0.01 0.01 0.01 0.02
1.94 1.99 1.88 1.81 1.79 1.71 1.64 1.60 1.48 1.15 0.92 0.98 1.21 1.57 1.73 1.61 1.75 1.94 1.81 1.30 0.65 0.61 0.97 0.27 0.07 0.03 0.02 0.01 0.03 0.03 0.00 0.02 0.07 0.06 0.06 0.05 0.02 0.00 0.02 0.01 0.01 0.01 0.05 0.03 0.03 0.02 0.00
1.86 1.79 1.77 1.82 1.90 1.88 1.80 1.71 1.42 1.16 1.11 1.18 1.26 1.61 1.96 2.50 3.20 2.16 1.95 0.99 0.84 1.37 1.58 0.60 0.10 0.05 0.03 0.03 0.06 0.00 0.00 0.01 0.08 0.08 0.15 0.20 0.03 0.03 0.03 0.01 0.07 0.06 0.00 0.02 0.02 0.12 0.08
1.88 1.88 1.82 1.75 1.74 1.72 1.70 1.74 1.73 1.54 1.32 1.27 1.37 1.72 2.13 2.58 2.22 2.15 1.42 0.70 1.53 2.32 3.65 0.80 0.06 0.01 0.05 0.03 0.02 0.02 0.00 0.02 0.06 0.15 0.47 0.26 0.03 0.06 0.07 0.04 0.07 0.05 0.00 0.02 0.04 0.12 0.27
1.85 1.83 1.93 1.95 1.76 1.59 1.58 1.64 1.61 1.58 1.59 1.55 1.50 1.69 2.36 2.57 2.31 1.26 0.71 1.40 3.20 5.51 4.81 0.67 0.03 0.01 0.02 0.01 0.01 0.01 0.05 0.04 0.04 0.21 0.26 0.07 0.02 0.13 0.20 0.01 0.03 0.05 0.08 0.11 0.15 0.33 0.82
2.39 1.94 1.83 1.87 1.90 1.95 1.73 1.57 1.48 1.62 1.72 1.75 1.85 1.95 2.28 1.93 2.31 1.48 1.74 3.41 6.17 6.50 2.50 0.40 0.04 0.02 0.01 0.01 0.00 0.03 0.12 0.13 0.31 0.57 0.39 0.14 0.12 0.07 0.15 0.20 0.10 0.17 0.43 1.00 1.01 0.94 0.69
2.35 2.31 2.17 1.97 1.84 1.84 1.85 1.78 1.61 1.56 1.68 1.94 2.24 2.54 2.50 2.10 1.71 2.18 3.82 5.97 7.19 3.64 1.18 0.18 0.05 0.07 0.10 0.07 0.04 0.03 0.18 0.36 0.48 0.27 0.45 0.61 0.60 0.22 0.32 0.45 0.31 0.20 0.58 1.08 0.99 0.44 0.21
2.37 2.30 2.19 1.99 1.73 1.64 1.72 1.87 1.89 1.96 2.04 2.23 2.94 3.31 3.44 2.92 2.73 3.50 5.91 9.10 5.72 1.84 0.35 0.08 0.10 0.24 0.32 0.28 0.18 0.19 0.49 0.83 0.76 0.45 1.04 1.09 0.80 0.37 0.37 0.32 0.46 0.84 0.93 0.40 1.42 1.08 1.25
2.92 2.47 2.30 2.15 1.93 1.76 1.73 1.68 2.01 2.21 2.38 2.65 2.82 3.36 3.29 2.86 3.57 5.21 7.72 7.07 3.26 0.81 0.14 0.11 0.38 0.31 0.37 0.33 0.44 0.52 0.85 1.32 0.70 0.55 1.14 1.61 1.82 0.43 0.42 0.73 0.65 0.83 0.85 1.85 3.27 3.16 2.05
3.58 2.88 2.50 2.40 2.28 1.79 1.70 1.67 1.87 2.20 2.31 3.01 3.54 4.47 3.17 2.74 5.24 8.20 8.83 5.01 2.17 0.64 0.34 0.46 0.39 0.55 0.38 0.36 0.60 0.85 1.24 1.41 1.05 0.43 0.78 1.48 2.11 1.17 0.75 1.32 1.45 1.22 1.77 2.94 3.48 2.70 2.63
3.45 3.58 3.10 2.71 2.79 2.38 1.85 1.95 2.13 2.37 2.95 4.14 4.78 4.89 3.21 3.50 6.51 7.46 5.66 2.90 1.40 0.58 0.59 0.89 0.70 0.46 0.58 0.50 0.57 1.01 1.40 1.42 0.97 0.74 0.82 1.33 2.04 1.66 1.00 0.60 0.62 1.18 2.02 3.15 5.25 4.66 4.04
3.36 3.41 3.68 3.35 3.27 3.46 2.75 2.39 2.60 2.88 3.39 4.33 5.85 4.25 4.20 4.81 5.88 4.41 2.92 2.19 1.41 0.70 0.63 1.31 1.12 0.77 0.72 0.66 1.24 0.80 0.93 0.99 1.03 1.01 1.17 1.30 2.02 2.05 1.45 1.36 1.11 1.87 2.01 2.37 3.23 4.03 4.10
2.96 3.19 3.04 3.58 3.44 4.01 3.76 3.18 2.90 3.11 4.16 5.09 6.76 6.01 6.32 6.42 4.12 2.61 2.04 1.68 1.35 0.72 0.51 0.77 1.10 0.69 0.98 1.23 1.19 1.20 0.70 0.80 0.99 0.89 0.82 1.76 1.49 1.97 2.07 2.60 1.96 1.67 1.32 1.70 2.70 3.33 2.55
2.26 2.67 3.14 3.15 3.74 4.11 4.44 4.22 3.99 4.12 4.91 8.02 8.88 4.82 3.12 4.01 2.89 2.07 1.87 1.89 1.09 1.03 1.03 0.79 1.15 0.88 1.00 1.54 1.35 1.03 0.80 1.08 1.24 1.03 1.00 2.09 2.13 1.73 1.70 1.23 0.75 1.10 1.12 0.94 1.62 1.50 2.10
2.00 2.04 2.62 3.31 3.79 3.69 4.22 4.63 4.59 4.86 6.54 10.49 8.91 3.28 1.78 1.13 1.04 1.73 1.69 1.69 0.95 0.85 1.49 1.35 1.33 0.89 0.96 1.34 1.29 1.19 1.27 1.21 1.48 1.01 1.35 2.25 2.83 2.22 2.41 1.16 0.99 1.19 1.13 0.74 1.01 1.19 1.52
1.84 1.80 2.20 2.82 3.19 3.30 3.89 4.53 4.66 4.88 7.81 12.76 7.15 2.10 2.49 1.75 0.95 1.43 1.69 1.38 1.07 1.30 1.19 0.77 1.03 1.17 1.19 1.20 0.94 0.62 0.79 1.07 1.16 1.15 1.46 2.34 3.40 3.27 3.37 1.47 1.22 2.09 2.09 1.55 1.28 1.25 1.46
2.03 1.92 1.95 2.39 2.56 3.11 3.72 4.07 4.66 5.34 6.49 7.23 4.52 2.48 3.33 2.84 1.32 1.15 0.67 0.66 0.81 0.92 1.97 0.97 0.91 1.32 1.06 0.75 0.88 1.06 1.14 1.17 1.25 1.43 1.67 2.30 2.38 3.34 3.27 2.22 3.15 2.96 1.47 1.40 1.85 1.43 1.27
2.30 2.17 2.22 2.43 2.67 2.90 3.46 3.67 4.32 5.27 5.87 5.62 4.21 3.14 3.88 3.04 1.23 0.96 0.66 0.68 0.64 0.90 1.19 1.40 1.16 1.04 0.77 0.87 1.90 2.63 2.52 2.33 1.65 1.48 1.80 1.93 2.04 3.19 3.46 2.57 2.34 0.96 1.10 1.46 1.93 1.72 1.41
2.40 2.29 2.31 2.41 2.64 2.85 3.26 3.50 3.48 4.43 5.69 5.93 5.01 3.78 4.52 4.57 1.58 0.71 0.73 0.54 0.82 1.26 1.40 1.13 1.23 1.29 1.41 1.90 2.92 3.17 2.31 2.01 1.65 1.26 0.92 1.35 2.07 3.27 3.29 2.81 2.27 1.65 0.87 0.56 1.08 1.80 1.43
2.20 2.19 2.00 2.14 2.39 2.53 2.90 3.23 3.13 3.70 4.92 6.33 5.96 3.70 5.65 5.58 1.36 0.79 1.23 1.11 0.82 1.09 1.43 1.16 1.27 1.55 1.60 2.95 3.80 2.88 1.94 1.09 1.55 1.73 1.58 1.88 2.99 3.38 2.68 2.57 1.68 1.40 0.65 0.32 1.76 2.22 1.72
2.16 2.25 1.96 2.01 2.12 2.18 2.52 2.82 3.00 3.19 4.33 5.73 6.33 3.28 5.36 6.05 2.10 0.94 0.97 0.89 0.71 0.95 1.72 1.65 2.19 2.17 2.65 2.80 2.76 2.60 2.38 1.97 1.84 1.67 1.89 2.07 2.78 2.82 2.61 2.92 2.08 1.34 1.17 1.92 2.53 1.92 1.64
2.15 2.35 2.05 2.02 1.98 2.06 2.18 2.47 2.92 3.28 4.11 5.32 5.94 3.58 4.35 6.83 3.78 1.05 1.04 0.71 0.49 0.66 1.29 1.62 2.07 2.02 2.54 3.12 2.44 2.15 2.03 1.96 1.64 2.16 1.09 2.29 2.14 2.43 2.77 3.12 2.37 1.78 2.17 2.27 1.92 1.68 1.37

GFSGBSN_prec_precacc_378.txt.gz
Total_Precipitation_Accumulation
1.34 1.36 1.26 1.08 0.81 0.54 0.43 0.37 0.30 0.22 0.20 0.15 0.13 0.11 0.09 0.09 0.09 0.07 0.05 0.03 0.04 0.04 0.04 0.05 0.06 0.08 0.05 0.02 0.00 0.00 0.00 0.00 0.00 0.00 0.00 0.00 0.00 0.00 0.00 0.00 0.00 0.00 0.00 0.00 0.01 0.01 0.01
1.13 1.10 1.36 1.61 1.74 1.67 1.47 1.23 0.96 0.77 0.66 0.52 0.39 0.29 0.23 0.16 0.12 0.10 0.09 0.06 0.05 0.05 0.05 0.07 0.10 0.14 0.09 0.03 0.00 0.00 0.00 0.00 0.00 0.00 0.00 0.00 0.00 0.00 0.00 0.00 0.00 0.00 0.00 0.00 0.02 0.00 0.00
1.46 1.38 1.17 1.08 1.22 1.43 1.60 1.61 1.54 1.36 1.20 1.09 1.00 0.89 0.71 0.56 0.37 0.23 0.16 0.10 0.08 0.12 0.14 0.16 0.20 0.16 0.10 0.01 0.00 0.00 0.00 0.00 0.00 0.00 0.00 0.00 0.00 0.00 0.00 0.00 0.00 0.00 0.00 0.00 0.00 0.01 0.01
1.56 1.56 1.62 1.57 1.30 1.18 1.21 1.37 1.36 1.37 1.40 1.29 1.26 1.13 0.95 0.75 0.63 0.48 0.30 0.20 0.17 0.13 0.17 0.30 0.39 0.26 0.13 0.00 0.00 0.00 0.00 0.00 0.00 0.00 0.00 0.00 0.00 0.00 0.00 0.00 0.00 0.00 0.00 0.00 0.00 0.01 0.02
1.30 1.33 1.46 1.56 1.57 1.51 1.48 1.47 1.52 1.46 1.32 1.31 1.34 1.38 1.21 1.02 0.76 0.53 0.43 0.33 0.24 0.26 0.33 0.35 0.45 0.36 0.09 0.00 0.00 0.00 0.00 0.02 0.00 0.00 0.00 0.00 0.00 0.00 0.00 0.00 0.01 0.00 0.00 0.00 0.00 0.00 0.01
1.46 1.30 1.22 1.17 1.20 1.22 1.24 1.31 1.41 1.47 1.49 1.36 1.38 1.41 1.44 1.35 1.21 1.01 0.79 0.60 0.48 0.52 0.60 0.68 0.58 0.29 0.04 0.00 0.00 0.00 0.00 0.02 0.01 0.00 0.00 0.00 0.00 0.01 0.00 0.01 0.01 0.00 0.00 0.00 0.02 0.07 0.00
2.08 1.92 1.69 1.54 1.38 1.17 1.08 1.12 1.16 1.19 1.28 1.30 1.21 1.23 1.26 1.31 1.37 1.45 1.28 1.22 1.09 0.94 0.72 0.36 0.21 0.08 0.00 0.00 0.00 0.00 0.00 0.00 0.00 0.00 0.02 0.00 0.02 0.01 0.00 0.00 0.00 0.01 0.01 0.00 0.00 0.00 0.00
2.10 2.00 1.94 1.89 1.78 1.70 1.56 1.42 1.19 1.09 1.04 1.19 1.41 1.41 1.21 1.19 1.36 1.58 1.46 1.31 0.92 0.70 0.59 0.09 0.02 0.01 0.01 0.00 0.00 0.00 0.01 0.04 0.03 0.03 0.03 0.04 0.03 0.00 0.00 0.00 0.00 0.02 0.03 0.01 0.01 0.01 0.02
1.94 1.99 1.88 1.81 1.79 1.71 1.64 1.60 1.48 1.15 0.92 0.98 1.21 1.57 1.73 1.61 1.75 1.94 1.81 1.30 0.65 0.61 0.97 0.27 0.07 0.03 0.02 0.01 0.03 0.03 0.00 0.02 0.07 0.06 0.06 0.05 0.02 0.00 0.02 0.01 0.01 0.01 0.05 0.03 0.03 0.02 0.00
1.86 1.79 1.77 1.82 1.90 1.88 1.80 1.71 1.42 1.16 1.11 1.18 1.26 1.61 1.96 2.50 3.20 2.16 1.95 0.99 0.84 1.37 1.58 0.60 0.10 0.05 0.03 0.03 0.06 0.00 0.00 0.01 0.08 0.08 0.15 0.20 0.03 0.03 0.03 0.01 0.07 0.06 0.00 0.02 0.02 0.12 0.08
1.88 1.88 1.82 1.75 1.74 1.72 1.70 1.74 1.73 1.54 1.32 1.27 1.37 1.72 2.13 2.58 2.22 2.15 1.42 0.70 1.53 2.32 3.65 0.80 0.06 0.01 0.05 0.03 0.02 0.02 0.00 0.02 0.06 0.15 0.47 0.26 0.03 0.06 0.07 0.04 0.07 0.05 0.00 0.02 0.04 0.12 0.27
1.85 1.83 1.93 1.95 1.76 1.59 1.58 1.64 1.61 1.58 1.59 1.55 1.50 1.69 2.36 2.57 2.31 1.26 0.71 1.40 3.20 5.51 4.81 0.67 0.03 0.01 0.02 0.01 0.01 0.01 0.05 0.04 0.04 0.21 0.26 0.07 0.02 0.13 0.20 0.01 0.03 0.05 0.08 0.11 0.15 0.33 0.82
2.39 1.94 1.83 1.87 1.90 1.95 1.73 1.57 1.48 1.62 1.72 1.75 1.85 1.95 2.28 1.93 2.31 1.48 1.74 3.41 6.17 6.50 2.50 0.40 0.04 0.02 0.01 0.01 0.00 0.03 0.12 0.13 0.31 0.57 0.39 0.14 0.12 0.07 0.15 0.20 0.10 0.17 0.43 1.00 1.01 0.94 0.69
2.35 2.31 2.17 1.97 1.84 1.84 1.85 1.78 1.61 1.56 1.68 1.94 2.24 2.54 2.50 2.10 1.71 2.18 3.82 5.97 7.19 3.64 1.18 0.18 0.05 0.07 0.10 0.07 0.04 0.03 0.18 0.36 0.48 0.27 0.45 0.61 0.60 0.22 0.32 0.45 0.31 0.20 0.58 1.08 0.99 0.44 0.21
2.37 2.30 2.19 1.99 1.73 1.64 1.72 1.87 1.89 1.96 2.04 2.23 2.94 3.31 3.44 2.92 2.73 3.50 5.91 9.10 5.72 1.84 0.35 0.08 0.10 0.24 0.32 0.28 0.18 0.19 0.49 0.83 0.76 0.45 1.04 1.09 0.80 0.37 0.37 0.32 0.46 0.84 0.93 0.40 1.42 1.08 1.25
2.92 2.47 2.30 2.15 1.93 1.76 1.73 1.68 2.01 2.21 2.38 2.65 2.82 3.36 3.29 2.86 3.57 5.21 7.72 7.07 3.26 0.81 0.14 0.11 0.38 0.31 0.37 0.33 0.44 0.52 0.85 1.32 0.70 0.55 1.14 1.61 1.82 0.43 0.42 0.73 0.65 0.83 0.85 1.85 3.28 3.17 2.05
3.58 2.88 2.50 2.40 2.28 1.79 1.70 1.67 1.87 2.20 2.31 3.01 3.54 4.47 3.17 2.74 5.24 8.20 8.83 5.01 2.17 0.64 0.34 0.46 0.39 0.55 0.38 0.36 0.60 0.85 1.24 1.41 1.05 0.43 0.78 1.48 2.11 1.17 0.75 1.32 1.45 1.22 1.77 2.94 3.48 2.71 2.64
3.45 3.58 3.10 2.71 2.79 2.38 1.85 1.95 2.13 2.37 2.95 4.14 4.78 4.89 3.21 3.50 6.51 7.46 5.66 2.90 1.40 0.58 0.59 0.89 0.70 0.46 0.58 0.50 0.57 1.01 1.40 1.42 0.97 0.74 0.82 1.33 2.04 1.66 1.00 0.60 0.62 1.18 2.02 3.15 5.26 4.68 4.06
3.36 3.41 3.68 3.35 3.27 3.46 2.75 2.39 2.60 2.88 3.39 4.33 5.85 4.25 4.20 4.81 5.88 4.41 2.92 2.19 1.41 0.70 0.63 1.31 1.12 0.77 0.72 0.66 1.24 0.80 0.93 0.99 1.03 1.01 1.17 1.30 2.02 2.05 1.45 1.36 1.11 1.87 2.01 2.37 3.24 4.04 4.11
2.96 3.19 3.04 3.58 3.44 4.01 3.76 3.18 2.90 3.11 4.16 5.09 6.76 6.01 6.32 6.42 4.12 2.61 2.04 1.68 1.35 0.72 0.51 0.77 1.10 0.69 0.98 1.23 1.19 1.20 0.70 0.80 0.99 0.89 0.82 1.76 1.49 1.97 2.07 2.60 1.96 1.67 1.32 1.70 2.71 3.34 2.56
2.26 2.67 3.14 3.15 3.74 4.11 4.44 4.22 3.99 4.12 4.91 8.02 8.88 4.82 3.12 4.01 2.89 2.07 1.87 1.89 1.09 1.03 1.03 0.79 1.15 0.88 1.00 1.54 1.35 1.03 0.80 1.08 1.24 1.03 1.00 2.09 2.13 1.73 1.70 1.23 0.75 1.10 1.12 0.94 1.62 1.50 2.11
2.00 2.04 2.62 3.31 3.79 3.69 4.22 4.63 4.59 4.86 6.54 10.49 8.91 3.28 1.78 1.13 1.04 1.73 1.69 1.69 0.95 0.85 1.49 1.35 1.33 0.89 0.96 1.34 1.29 1.19 1.27 1.21 1.48 1.01 1.35 2.25 2.83 2.22 2.41 1.16 0.99 1.19 1.13 0.74 1.01 1.19 1.52
1.84 1.80 2.20 2.82 3.19 3.30 3.89 4.53 4.66 4.88 7.81 12.76 7.15 2.10 2.49 1.75 0.95 1.43 1.69 1.38 1.07 1.30 1.19 0.77 1.03 1.17 1.19 1.20 0.94 0.62 0.79 1.07 1.16 1.15 1.46 2.34 3.40 3.27 3.37 1.47 1.23 2.09 2.09 1.55 1.28 1.25 1.46
2.03 1.92 1.95 2.39 2.56 3.11 3.72 4.07 4.66 5.34 6.49 7.23 4.52 2.48 3.33 2.84 1.32 1.15 0.67 0.66 0.81 0.92 1.97 0.97 0.91 1.32 1.06 0.75 0.88 1.06 1.14 1.17 1.25 1.43 1.67 2.30 2.38 3.34 3.27 2.22 3.16 2.96 1.47 1.40 1.85 1.43 1.27
2.30 2.17 2.22 2.43 2.67 2.90 3.46 3.67 4.32 5.27 5.87 5.62 4.21 3.14 3.88 3.04 1.23 0.96 0.66 0.68 0.64 0.90 1.19 1.40 1.16 1.04 0.77 0.87 1.90 2.63 2.52 2.33 1.65 1.48 1.80 1.93 2.04 3.19 3.46 2.57 2.34 0.96 1.10 1.46 1.93 1.72 1.41
2.40 2.29 2.31 2.41 2.64 2.85 3.26 3.50 3.48 4.43 5.69 5.93 5.01 3.78 4.52 4.57 1.58 0.71 0.73 0.54 0.82 1.26 1.40 1.13 1.23 1.29 1.41 1.90 2.92 3.17 2.31 2.01 1.65 1.26 0.92 1.35 2.07 3.27 3.29 2.81 2.27 1.65 0.87 0.56 1.08 1.80 1.43
2.20 2.19 2.00 2.14 2.39 2.53 2.90 3.23 3.13 3.70 4.92 6.33 5.96 3.70 5.65 5.58 1.36 0.79 1.23 1.11 0.82 1.09 1.43 1.16 1.27 1.55 1.60 2.95 3.80 2.88 1.94 1.09 1.55 1.73 1.58 1.88 2.99 3.38 2.68 2.57 1.68 1.40 0.65 0.32 1.76 2.22 1.72
2.16 2.25 1.96 2.01 2.12 2.18 2.52 2.82 3.00 3.19 4.33 5.73 6.33 3.28 5.36 6.05 2.10 0.94 0.97 0.89 0.71 0.95 1.72 1.65 2.19 2.17 2.65 2.80 2.76 2.60 2.38 1.97 1.84 1.67 1.89 2.07 2.78 2.82 2.61 2.92 2.08 1.34 1.17 1.92 2.53 1.92 1.64
2.15 2.35 2.05 2.02 1.98 2.06 2.18 2.47 2.92 3.28 4.11 5.32 5.94 3.58 4.35 6.83 3.78 1.05 1.04 0.71 0.49 0.66 1.29 1.62 2.07 2.02 2.54 3.12 2.44 2.15 2.03 1.96 1.64 2.16 1.09 2.29 2.14 2.43 2.77 3.12 2.37 1.78 2.17 2.27 1.92 1.68 1.37